SHIJIAN-17 (SJ-17)

Last updated on Sat Aug 15 2026 00:03:00 GMT+0000 (Coordinated Universal Time)

1 41838U 16065A 26226.52592522 -.00000281 00000+0 00000+0 0 9992 2 41838 5.8969 71.8805 0001912 58.3472 172.4733 0.99870589 35789
UTC large
Height (km)
Speed (km/s)
/
Latitude / Longitude
Inclination (degrees)
Orbital Period (minutes)
Azimuth
Elevation
Range (km)
Doppler Factor

Next 0 passes for location: London (51.5072 / 0.1276)

No passes found over London.
SHIJIAN-17 (SJ-17)